Location: Bijele Vode
(45.2833°N, 16.2000°E)
Time: 01:13:22
(UTC+00:00)

Cosmos 2279 Rocket - Pass Details

Date: 18 September 2020
Orbit: 964 x 979 km, 82.9° (Epoch: 26 October)

Event Time Altitude Azimuth Distance (km) Brightness Sun altitude
Exits shadow 20:20:49 65° 336° (NNW) 1,069 4.2 -32.9°
Drops below altitude 10° 20:26:15 10° 6° (N) 2,741 6.8 -33.6°
Sets 20:28:47 0° 8° (N) 3,694 7.5 -33.9°
